Forest City, IA

4:56 AM CDT on June 25, 2017 (GMT -0500)
Forest City Municipal

Weather History for KFXY - January, 2013

Change the Weather History Date:

Wednesday, January 23, 2013

  Actual Average Record
Temperature  
Mean Temperature 10 °F -  
Max Temperature 21 °F 27 °F 33 °F (2015)
Min Temperature 0 °F 6 °F -11 °F (2014)
Degree Days  
Heating Degree Days 54    
Moisture  
Dew Point 3 °F    
Average Humidity 65    
Maximum Humidity 79    
Minimum Humidity 49    
Precipitation  
Precipitation 0.00 in - - ()
Sea Level Pressure  
Sea Level Pressure 30.24 in    
Wind  
Wind Speed 11 mph (WNW)    
Max Wind Speed 25 mph    
Max Gust Speed 32 mph    
Visibility 10 miles    
Events Snow    
Averages and records for this station are not official NWS values.
T = Trace of Precipitation, MM = Missing Value Source: NWS Daily Summary

Daily Weather History Graph

Daily Weather History Graph

Search for Another Location

Airport or City:

Trip Planner

Search our weather history database for the weather conditions in past years. The results will help you decide how hot, cold, wet, or windy it might be!

Date:

Astronomy

Jan. 23, 2013 Rise Set
Actual Time 7:38 AM CST 5:15 PM CST
Civil Twilight 7:07 AM CST 5:46 PM CST
Nautical Twilight 6:32 AM CST 6:20 PM CST
Astronomical Twilight 5:58 AM CST 6:54 PM CST
Moon 2:24 PM CST (1/23) 4:51 AM CST (1/23)
Length of Visible Light 10h 38m
Length of Day
9h 36m
Waxing Gibbous, 89% of the Moon is Illuminated
Jan 23
Waxing Gibbous
Jan 26
Full
Feb 3
Last Quarter
Feb 10
New
Feb 17
First Quarter

Hourly Weather History & Observations

Time (CST) Temp. Windchill Dew Point Humidity Pressure Visibility Wind Dir Wind Speed Gust Speed Precip Events Conditions
12:15 AM 12.2 °F 1.7 °F 5.0 °F 73% 30.21 in 10.0 mi South 6.9 mph - N/A   Overcast
12:35 AM 12.2 °F 1.7 °F 5.0 °F 73% 30.20 in 7.0 mi South 6.9 mph - N/A Snow Light Snow
12:55 AM 12.2 °F 1.7 °F 5.0 °F 73% 30.19 in 10.0 mi South 6.9 mph - N/A   Overcast
1:15 AM 12.2 °F 2.9 °F 6.8 °F 79% 30.18 in 10.0 mi South 5.8 mph - N/A Snow Light Snow
1:35 AM 12.2 °F 4.3 °F 6.8 °F 79% 30.18 in 10.0 mi South 4.6 mph - N/A   Overcast
1:55 AM 12.2 °F 2.9 °F 6.8 °F 79% 30.18 in 10.0 mi South 5.8 mph - N/A   Overcast
2:15 AM 14.0 °F 3.9 °F 6.8 °F 73% 30.18 in 10.0 mi South 6.9 mph - N/A   Overcast
2:35 AM 14.0 °F 3.9 °F 6.8 °F 73% 30.18 in 10.0 mi South 6.9 mph - N/A   Overcast
2:55 AM 14.0 °F 3.9 °F 6.8 °F 73% 30.16 in 10.0 mi South 6.9 mph - N/A   Overcast
3:15 AM 14.0 °F 3.9 °F 6.8 °F 73% 30.15 in 10.0 mi South 6.9 mph - N/A   Overcast
3:35 AM 14.0 °F 3.9 °F 6.8 °F 73% 30.15 in 10.0 mi South 6.9 mph - N/A   Overcast
3:55 AM 14.0 °F 2.9 °F 8.6 °F 79% 30.14 in 10.0 mi South 8.1 mph - N/A   Overcast
4:15 AM 14.0 °F 2.9 °F 8.6 °F 79% 30.13 in 10.0 mi South 8.1 mph - N/A   Overcast
4:35 AM 14.0 °F 2.9 °F 8.6 °F 79% 30.12 in 10.0 mi SSW 8.1 mph - N/A   Overcast
4:55 AM 15.8 °F 6.1 °F 8.6 °F 73% 30.11 in 10.0 mi SSW 6.9 mph - N/A   Overcast
5:15 AM 15.8 °F 10.2 °F 8.6 °F 73% 30.12 in 10.0 mi SSW 3.5 mph - N/A   Overcast
5:35 AM 15.8 °F 6.1 °F 8.6 °F 73% 30.12 in 10.0 mi SSW 6.9 mph - N/A   Overcast
5:55 AM 15.8 °F 5.1 °F 8.6 °F 73% 30.12 in 10.0 mi SW 8.1 mph - N/A   Overcast
6:15 AM 15.8 °F 6.1 °F 8.6 °F 73% 30.12 in 10.0 mi SW 6.9 mph - N/A   Overcast
6:35 AM 17.6 °F 9.3 °F 8.6 °F 68% 30.12 in 10.0 mi SW 5.8 mph - N/A   Overcast
6:55 AM 17.6 °F 6.4 °F 8.6 °F 68% 30.11 in 10.0 mi SW 9.2 mph - N/A   Overcast
7:15 AM 17.6 °F 8.2 °F 8.6 °F 68% 30.11 in 10.0 mi SW 6.9 mph - N/A   Overcast
7:55 AM 17.6 °F 12.3 °F 8.6 °F 68% 30.12 in 10.0 mi WSW 3.5 mph - N/A   Overcast
8:15 AM 17.6 °F 9.3 °F 8.6 °F 68% 30.12 in 10.0 mi West 5.8 mph - N/A   Overcast
8:35 AM 15.8 °F 8.6 °F 8.6 °F 73% 30.12 in 10.0 mi West 4.6 mph - N/A   Overcast
8:55 AM 15.8 °F 6.1 °F 10.4 °F 79% 30.13 in 10.0 mi West 6.9 mph - N/A   Overcast
9:15 AM 17.6 °F 7.3 °F 10.4 °F 73% 30.13 in 10.0 mi WNW 8.1 mph - N/A   Overcast
9:35 AM 17.6 °F 5.7 °F 10.4 °F 73% 30.14 in 10.0 mi NW 10.4 mph - N/A   Overcast
9:55 AM 19.4 °F 6.0 °F 10.4 °F 68% 30.15 in 10.0 mi NW 13.8 mph - N/A Snow Light Snow
10:15 AM 19.4 °F 5.0 °F 10.4 °F 68% 30.16 in 5.0 mi NNW 16.1 mph - N/A Snow Light Snow
10:35 AM 19.4 °F 7.2 °F 10.4 °F 68% 30.16 in 7.0 mi NW 11.5 mph 18.4 mph N/A Snow Light Snow
10:55 AM 19.4 °F 6.0 °F 10.4 °F 68% 30.17 in 10.0 mi NW 13.8 mph 18.4 mph N/A   Overcast
11:15 AM 19.4 °F 5.0 °F 10.4 °F 68% 30.18 in 10.0 mi NW 16.1 mph 19.6 mph N/A   Mostly Cloudy
11:35 AM 19.4 °F 6.0 °F 10.4 °F 68% 30.18 in 10.0 mi NNW 13.8 mph 21.9 mph N/A   Mostly Cloudy
11:55 AM 21.2 °F 6.8 °F 8.6 °F 58% 30.17 in 10.0 mi NW 17.3 mph 25.3 mph N/A   Mostly Cloudy
12:15 PM 21.2 °F 6.4 °F 8.6 °F 58% 30.17 in 10.0 mi NW 18.4 mph - N/A   Mostly Cloudy
12:35 PM 21.2 °F 5.2 °F 10.4 °F 63% 30.18 in 7.0 mi NW 21.9 mph 27.6 mph N/A Snow Light Snow
12:55 PM 19.4 °F 5.0 °F 10.4 °F 68% 30.17 in 7.0 mi NW 16.1 mph 26.5 mph N/A Snow Light Snow
1:15 PM 21.2 °F 7.8 °F 10.4 °F 63% 30.17 in 7.0 mi NW 15.0 mph 23.0 mph N/A Snow Light Snow
1:35 PM 19.4 °F 3.2 °F 8.6 °F 63% 30.17 in 10.0 mi NW 20.7 mph 27.6 mph N/A   Mostly Cloudy
1:55 PM 21.2 °F 5.2 °F 6.8 °F 54% 30.17 in 10.0 mi NW 21.9 mph 27.6 mph N/A   Scattered Clouds
2:15 PM 19.4 °F 1.8 °F 6.8 °F 58% 30.19 in 10.0 mi NNW 25.3 mph 31.1 mph N/A   Scattered Clouds
2:35 PM 19.4 °F 2.8 °F 5.0 °F 54% 30.20 in 10.0 mi NW 21.9 mph 29.9 mph N/A   Scattered Clouds
2:55 PM 17.6 °F 0.9 °F 3.2 °F 53% 30.21 in 10.0 mi NNW 20.7 mph 28.8 mph N/A   Scattered Clouds
3:15 PM 17.6 °F 0.5 °F 1.4 °F 49% 30.23 in 10.0 mi NNW 21.9 mph 29.9 mph N/A   Clear
3:35 PM 15.8 °F -1.5 °F -0.4 °F 49% 30.24 in 10.0 mi NNW 20.7 mph 26.5 mph N/A   Clear
3:55 PM 14.0 °F -4.3 °F -0.4 °F 53% 30.24 in 10.0 mi NW 21.9 mph 29.9 mph N/A   Clear
4:15 PM 12.2 °F -6.7 °F -0.4 °F 57% 30.26 in 10.0 mi NW 21.9 mph 31.1 mph N/A   Clear
4:35 PM 10.4 °F -8.2 °F -2.2 °F 57% 30.27 in 10.0 mi NW 19.6 mph 32.2 mph N/A   Clear
4:55 PM 10.4 °F -7.7 °F -2.2 °F 57% 30.28 in 10.0 mi NW 18.4 mph 28.8 mph N/A   Clear
5:15 PM 8.6 °F -11.9 °F -4.0 °F 57% 30.30 in 10.0 mi NW 23.0 mph 27.6 mph N/A   Clear
5:35 PM 8.6 °F -8.9 °F -4.0 °F 57% 30.32 in 10.0 mi NW 16.1 mph 26.5 mph N/A   Scattered Clouds
5:55 PM 6.8 °F -13.8 °F -4.0 °F 61% 30.33 in 10.0 mi NW 21.9 mph 28.8 mph N/A   Mostly Cloudy
6:15 PM 6.8 °F -13.8 °F -4.0 °F 61% 30.34 in 10.0 mi NNW 21.9 mph 32.2 mph N/A   Overcast
6:35 PM 5.0 °F -15.7 °F -4.0 °F 66% 30.36 in 10.0 mi NNW 20.7 mph 28.8 mph N/A   Mostly Cloudy
6:55 PM 5.0 °F -14.7 °F -4.0 °F 66% 30.37 in 7.0 mi NNW 18.4 mph 27.6 mph N/A   Mostly Cloudy
7:15 PM 5.0 °F -15.7 °F -4.0 °F 66% 30.38 in 10.0 mi NNW 20.7 mph 27.6 mph N/A   Overcast
7:35 PM 3.2 °F -18.6 °F -9.4 °F 56% 30.39 in 10.0 mi North 21.9 mph 27.6 mph N/A   Scattered Clouds
7:55 PM 3.2 °F -16.5 °F -9.4 °F 56% 30.39 in 10.0 mi NNW 17.3 mph 26.5 mph N/A   Clear
8:15 PM 3.2 °F -14.6 °F -9.4 °F 56% 30.41 in 10.0 mi North 13.8 mph - N/A   Clear
8:35 PM 1.4 °F -18.2 °F -9.4 °F 61% 30.41 in 10.0 mi NNW 16.1 mph 27.6 mph N/A   Clear
8:55 PM 1.4 °F -18.8 °F -9.4 °F 61% 30.43 in 10.0 mi North 17.3 mph - N/A   Clear
9:15 PM 1.4 °F -19.9 °F -9.4 °F 61% 30.44 in 10.0 mi NNW 19.6 mph 24.2 mph N/A   Clear
9:35 PM 1.4 °F -18.8 °F -9.4 °F 61% 30.45 in 10.0 mi NNW 17.3 mph 21.9 mph N/A   Clear
9:55 PM 1.4 °F -16.9 °F -9.4 °F 61% 30.45 in 10.0 mi North 13.8 mph - N/A   Clear
10:15 PM 1.4 °F -17.6 °F -9.4 °F 61% 30.46 in 10.0 mi North 15.0 mph - N/A   Clear
10:35 PM 1.4 °F -16.9 °F -11.2 °F 56% 30.46 in 10.0 mi North 13.8 mph 20.7 mph N/A   Clear
10:55 PM 1.4 °F -17.6 °F -11.2 °F 56% 30.47 in 10.0 mi North 15.0 mph - N/A   Clear
11:15 PM -0.4 °F -19.2 °F -11.2 °F 60% 30.49 in 10.0 mi North 13.8 mph 18.4 mph N/A   Clear
11:35 PM -0.4 °F -18.4 °F -11.2 °F 60% 30.51 in 10.0 mi North 12.7 mph - N/A   Clear
11:55 PM -0.4 °F -16.7 °F -11.2 °F 60% 30.51 in 10.0 mi North 10.4 mph - N/A   Clear